Regional Weather Roundup
Issued by NWS

Home | Current Version | Previous Version | Graphics & Text | Print | Product List | Glossary On
Versions: 1 2 3 4 5 6 7 8 9 10 11 12 13 14 15 16 17 18 19 20 21 22 23 24 25 26 27 28 29 30 31 32 33 34 35 36 37 38 39 40 41 42 43 44 45 46 47 48 49 50
995
ASUS43 KMKX 180021
RWRWI

WISCONSIN REGIONAL WEATHER ROUNDUP
NATIONAL WEATHER SERVICE MILWAUKEE/SULLIVAN WI
700 PM CDT TUE OCT 17 2017

NOTE: "FAIR" INDICATES FEW OR NO CLOUDS BELOW 12,000 FEET WITH NO
SIGNIFICANT WEATHER AND/OR OBSTRUCTIONS TO VISIBILITY.

WIZ001-002-006>008-014>016-023>028-180100-
NORTHWEST WISCONSIN

CITY           SKY/WX    TMP DP  RH WIND       PRES   REMARKS
SUPERIOR ARPT  CLEAR     57  40  52 S7        29.87S
6HR MIN TEMP:  57; 6HR MAX TEMP:  72;

ASHLAND        CLEAR     57  41  55 S6        29.91R
6HR MIN TEMP:  57; 6HR MAX TEMP:  72;

HAYWARD        CLEAR     56  42  59 S5        29.93R
6HR MIN TEMP:  56; 6HR MAX TEMP:  71;

SIREN          CLEAR     60  42  50 S3        29.93S
6HR MIN TEMP:  60; 6HR MAX TEMP:  71;

CUMBERLAND     CLEAR     54  41  62 SW3       29.95R
RICE LAKE      CLEAR     57  43  61 S5        29.96S
6HR MIN TEMP:  57; 6HR MAX TEMP:  72; 6HR PCP:  0.04;

CHETEK         CLEAR     57  46  65 SE6       29.95S
6HR MIN TEMP:  57; 6HR MAX TEMP:  71;

LADYSMITH      CLEAR     60  44  55 S5        29.97S
6HR MIN TEMP:  60; 6HR MAX TEMP:  70;

EAU CLAIRE     CLOUDY    60  46  59 S8        29.95S
6HR MIN TEMP:  60; 6HR MAX TEMP:  71;

MENOMONIE      CLEAR     58  45  60 SE6       29.95S
6HR MIN TEMP:  58; 6HR MAX TEMP:  71;

NEW RICHMOND   CLEAR     60  42  50 CALM      29.94S
6HR MIN TEMP:  60; 6HR MAX TEMP:  70;

OSCEOLA        CLEAR     54  45  71 E5        29.96S
6HR MIN TEMP:  54; 6HR MAX TEMP:  71;

$$

WIZ003>005-009-010-017-018-180100-
NORTH CENTRAL WISCONSIN

CITY           SKY/WX    TMP DP  RH WIND       PRES   REMARKS
MANITOWISH WTR CLEAR     53  41  62 S3        29.95R
6HR MIN TEMP:  51; 6HR MAX TEMP:  68;

ARBOR VITAE    CLEAR     57  45  64 CALM      29.96R
6HR MIN TEMP:  57; 6HR MAX TEMP:  69;

WOODRUFF       CLEAR     57  45  64 CALM      29.96R
6HR MIN TEMP:  57; 6HR MAX TEMP:  69;

RHINELANDER    CLEAR     57  43  59 CALM      29.99R
6HR MIN TEMP:  57; 6HR MAX TEMP:  69;

EAGLE RIVER    CLEAR     54  41  62 S3        29.97R
6HR MIN TEMP:  53; 6HR MAX TEMP:  67;

LAND O LAKES   CLEAR     50  42  75 CALM      29.98R
6HR MIN TEMP:  50; 6HR MAX TEMP:  69;

PHILLIPS       CLEAR     53  44  72 CALM      29.96R
6HR MIN TEMP:  53; 6HR MAX TEMP:  68;

TOMAHAWK       CLEAR     52  44  72 CALM      29.98R
6HR MIN TEMP:  52; 6HR MAX TEMP:  68;

MEDFORD        CLEAR     58  43  57 S7        29.99R
6HR MIN TEMP:  58; 6HR MAX TEMP:  68;

MERRILL        CLEAR     60  46  58 SW3       29.99R
6HR MIN TEMP:  60; 6HR MAX TEMP:  69;

$$

WIZ029-030-035-036-043>047-180100-
CENTRAL WISCONSIN

CITY           SKY/WX    TMP DP  RH WIND       PRES   REMARKS
WAUSAU         CLEAR     60  46  59 S8        29.98R
6HR MIN TEMP:  60; 6HR MAX TEMP:  69;

MOSINEE        MOCLDY    54  46  76 S7        30.01R
MARSHFIELD     PTCLDY    58  44  60 S3        29.99R
6HR MIN TEMP:  58; 6HR MAX TEMP:  70;

STEVENS POINT  CLOUDY    56  45  68 S3        30.01S
6HR MIN TEMP:  56; 6HR MAX TEMP:  68;

WAUPACA        CLOUDY    59  47  64 CALM      30.02R
6HR MIN TEMP:  59; 6HR MAX TEMP:  72;

WAUTOMA        CLOUDY    57  48  72 CALM      30.03R
6HR MIN TEMP:  57; 6HR MAX TEMP:  70;

WISC RAPIDS    CLOUDY    59  48  67 S6        30.01S
6HR MIN TEMP:  59; 6HR MAX TEMP:  70;

CAMP DOUGLAS   MOCLDY    54  46  76 SE3       30.00S
$$

WIZ011>013-019>022-031-037>040-048>050-180100-
NORTHEAST WISCONSIN

CITY           SKY/WX    TMP DP  RH WIND       PRES   REMARKS
ANTIGO         CLEAR     54  45  71 S6        30.01R
6HR MIN TEMP:  54; 6HR MAX TEMP:  67;

SHAWANO        CLEAR     57  49  74 CALM      30.00R
6HR MIN TEMP:  57; 6HR MAX TEMP:  73;

OCONTO         CLEAR     58  49  71 S3        30.01R
6HR MIN TEMP:  58; 6HR MAX TEMP:  70;

STURGEON BAY   CLEAR     55  50  83 S7        30.03R
6HR MIN TEMP:  55; 6HR MAX TEMP:  67;

GREEN BAY      CLOUDY    59  50  72 S5        30.02R
6HR MIN TEMP:  59; 6HR MAX TEMP:  68;

MANITOWOC      CLOUDY    57  50  77 CALM      30.04R
6HR MIN TEMP:  56; 6HR MAX TEMP:  69;

APPLETON       PTCLDY    57  43  58 W8        30.01R
CLINTONVILLE   CLEAR     57  46  67 S5        30.01R
OSHKOSH        PTCLDY    58  48  69 CALM      30.03R
6HR MIN TEMP:  57; 6HR MAX TEMP:  69;

$$

WIZ032>034-041-042-053>061-180100-
SOUTHWEST WISCONSIN

CITY           SKY/WX    TMP DP  RH WIND       PRES   REMARKS
LA CROSSE      CLEAR     62  49  62 SE6       29.98S
6HR MIN TEMP:  62; 6HR MAX TEMP:  72;

SPARTA         CLEAR     56  48  74 CALM      30.01S
6HR MIN TEMP:  56; 6HR MAX TEMP:  70;

VIROQUA        CLEAR     64  46  52 S3        30.02R
6HR MIN TEMP:  64; 6HR MAX TEMP:  69;

BOSCOBEL       CLEAR     65  44  46 SW5       30.03R
6HR MIN TEMP:  65; 6HR MAX TEMP:  75;

PRAIRIE DU CHI CLEAR     67  39  36 CALM      30.02R
6HR MIN TEMP:  66; 6HR MAX TEMP:  73;

PLATTEVILLE    CLEAR     61  46  57 S10       30.06R
6HR MIN TEMP:  61; 6HR MAX TEMP:  71;

$$

WIZ056-057-062-063-064-067-068-180100-
SOUTH CENTRAL WISCONSIN

CITY           SKY/WX    TMP DP  RH WIND       PRES   REMARKS
REEDSBURG      CLEAR     62  45  53 S6        30.02R
6HR MIN TEMP:  62; 6HR MAX TEMP:  69;

BARABOO/DELLS  CLEAR     61  43  51 SW8       30.03R
6HR MIN TEMP:  61; 6HR MAX TEMP:  69;

LONE ROCK      CLEAR     61  46  57 CALM      30.03R
6HR MIN TEMP:  61; 6HR MAX TEMP:  72;

MINERAL POINT  CLEAR     63  45  51 S7        30.06R
MADISON        PTCLDY    65  45  48 S10       30.05R
6HR MIN TEMP:  64; 6HR MAX TEMP:  70;

MIDDLETON      CLEAR     64  44  47 SW6       30.05R
6HR MIN TEMP:  64; 6HR MAX TEMP:  72;

WATERTOWN      CLEAR     61  46  56 S9        30.05R
6HR MIN TEMP:  61; 6HR MAX TEMP:  71;

MONROE         CLEAR     61  41  48 S12       30.07S
JANESVILLE     CLEAR     61  39  44 SW10        N/A
$$

WIZ051-052-058>065-066-070>072-180100-
SOUTHEAST WISCONSIN

CITY           SKY/WX    TMP DP  RH WIND       PRES   REMARKS
MILWAUKEE      PTCLDY    65  43  44 SW10      30.07R
6HR MIN TEMP:  65; 6HR MAX TEMP:  73;

WAUKESHA       CLEAR     61  43  51 S6        30.08R
MILWAUKEE/TIMM CLEAR     64  39  39 SW8       30.06R
RACINE         CLEAR     63  42  46 SW7       30.10R
6HR MIN TEMP:  63; 6HR MAX TEMP:  73;

BURLINGTON     CLEAR     57  44  62 SW5       30.09R
6HR MIN TEMP:  57; 6HR MAX TEMP:  72;

KENOSHA        CLEAR     61  42  49 S9        30.09R
6HR MIN TEMP:  61; 6HR MAX TEMP:  72;

FOND DU LAC    CLOUDY    61  44  53 S5        30.03R
6HR MIN TEMP:  61; 6HR MAX TEMP:  70;

SHEBOYGAN      CLOUDY    57  50  77 S3        30.04R
6HR MIN TEMP:  54; 6HR MAX TEMP:  70;

WEST BEND      CLEAR     61  41  48 SW3       30.05R
JUNEAU         CLEAR     61  44  53 S5        30.06R
6HR MIN TEMP:  61; 6HR MAX TEMP:  69;

$$

LSZ147-162-180100-
LAKE SUPERIOR

STATION/POSITION TIME  TEMP    WIND        PRES    WAVE
                       AIR SEA DIR/SP/G            HT/PER
                 (UTC) (F)     (DEG/KT/KT) (MB)    (FT/S)
W MID LAKE BUOY  2350   54 53              1012.2R   1
DEVILS ISLAND    0000   64     180/  9/ 10 1011.9S
SAXON HARBOR     2330   56     200/  2/  3 1012.2R
$$

LMZ867-665-643>646-180100-
LAKE MICHIGAN

STATION/POSITION TIME  TEMP    WIND        PRES    WAVE
                       AIR SEA DIR/SP/G            HT/PER
                 (UTC) (F



USA.gov is the U.S. government's official web portal to all federal, state and local government web resources and services.